Погода в Сомюре

Франция     47°15′56″N   0°04′04″E
темп.,
°C
ветер,
м/с
пор.,
м/с
влажн.,
%
обл.,
%
осадки,
мм/ч
давл.,
гПа
погр.,
м
14 апреля, ср
ср1423:00+4св4106461 0.0 1030198
02:00+2св49670 0.0 1030171
05:00+1св4117383 0.0 1029195
08:00+1св411690 0.0 1030247
11:00+8всв710520 0.0 10301204
14:00+11св79405 0.0 10281812
17:00+12св79415 0.0 10272022
20:00+9св59541 0.0 1027314
15 апреля, чт
чт1523:00+4ссв512725 0.0 1029271
02:00+2св410855 0.0 1029200
05:000св410860 0.0 1029193
08:000св411850 0.0 1029268
11:00+8св68565 0.0 1029964
14:00+11св674465 0.0 10272105
17:00+11св774296 0.0 10252037
20:00+8ссв510555 0.0 1025450
16 апреля, пт
пт1623:00+4ссв614744 0.0 1026392
02:00+2ссв411895 0.0 1026264
05:00+1ссв410910 0.0 1026202
08:00+1ссв411843 0.0 1026247
11:00+9св69560 0.0 1027895
14:00+11св7942100 0.0 10252436
17:00+11св7947100 0.0 10252037
20:00+8ссв6966100 0.2 1025893
17 апреля, сб
сб1723:00+4ссв410845 0.1 1026182
02:00+2ссв47885 0.1 1026138
05:00+1с38935 0.0 1026159
08:00+2с410905 0.0 1026222
11:00+10ссв58635 0.0 1026777
14:00+13ссв575186 0.0 10241777
17:00+13с5751100 0.0 10241884
20:00+12ссв596119 0.0 1024420
18 апреля, вс
вс1823:00+6с46805 0.0 102595
02:00+4ссв36920 0.0 102695
05:00+2с33920 0.0 102645
08:00+3с23895 0.0 102658
11:00+10св34655 0.0 1026634
14:00+14св235287 0.0 10241630
17:00+14всв4356100 0.0 10231140
20:00+13всв3361100 0.0 102367